• Em Portugal
  • Lista de países
  • Para 7 dias
  • Temperatura da água
  • Mapas de satélite
  • Mapa do tempo
  • Widgets de tempo
  • user-avatar
    Iniciar Sessão

    Previsão horária em Antuérpia

    Hoje, 19 Outubro, Sexta-feira

    Tempo Temperatura Precipitação Vento Pressão Humidade
    00:00 +10°C° 0 mm 3 m/s 768 mmHg 91%
    01:00 +9°C° 0 mm 3 m/s 768 mmHg 92%
    02:00 +9°C° 0 mm 3 m/s 768 mmHg 92%
    03:00 +8°C° 0 mm 3 m/s 767 mmHg 93%
    04:00 +8°C° 0 mm 3 m/s 768 mmHg 93%
    05:00 +8°C° 0 mm 3 m/s 768 mmHg 94%
    06:00 +8°C° 0 mm 2 m/s 768 mmHg 94%
    07:00 +9°C° 0 mm 3 m/s 768 mmHg 89%
    08:00 +10°C° 0 mm 3 m/s 768 mmHg 84%
    09:00 +12°C° 0 mm 3 m/s 768 mmHg 80%
    10:00 +14°C° 0 mm 2 m/s 768 mmHg 74%
    11:00 +16°C° 0 mm 2 m/s 768 mmHg 69%
    12:00 +17°C° 0 mm 2 m/s 768 mmHg 63%
    13:00 +17°C° 0 mm 2 m/s 768 mmHg 63%
    14:00 +17°C° 0 mm 2 m/s 768 mmHg 62%
    15:00 +17°C° 0 mm 2 m/s 767 mmHg 62%
    16:00 +16°C° 0 mm 3 m/s 768 mmHg 67%
    17:00 +13°C° 0 mm 3 m/s 768 mmHg 72%
    18:00 +11°C° 0 mm 3 m/s 769 mmHg 78%
    19:00 +12°C° 0 mm 2 m/s 769 mmHg 80%
    20:00 +10°C° 0 mm 2 m/s 769 mmHg 81%
    21:00 +9°C° 0 mm 2 m/s 770 mmHg 83%
    22:00 +9°C° 0 mm 2 m/s 770 mmHg 84%
    23:00 +9°C° 0 mm 2 m/s 770 mmHg 84%

    Amanhã, 20 Outubro, Sábado

    Tempo Temperatura Precipitação Vento Pressão Humidade
    00:00 +8°C° 0 mm 2 m/s 770 mmHg 85%
    01:00 +8°C° 0 mm 2 m/s 770 mmHg 86%
    02:00 +7°C° 0 mm 2 m/s 771 mmHg 86%
    03:00 +8°C° 0 mm 1 m/s 771 mmHg 86%
    04:00 +7°C° 0 mm 2 m/s 771 mmHg 87%
    05:00 +7°C° 0 mm 2 m/s 772 mmHg 87%
    06:00 +6°C° 0 mm 2 m/s 772 mmHg 87%
    07:00 +8°C° 0 mm 2 m/s 772 mmHg 80%
    08:00 +9°C° 0 mm 2 m/s 773 mmHg 73%
    09:00 +12°C° 0 mm 2 m/s 773 mmHg 65%
    10:00 +13°C° 0 mm 2 m/s 773 mmHg 60%
    11:00 +14°C° 0 mm 2 m/s 773 mmHg 54%
    12:00 +16°C° 0 mm 2 m/s 773 mmHg 49%
    13:00 +16°C° 0 mm 2 m/s 773 mmHg 49%
    14:00 +16°C° 0 mm 2 m/s 773 mmHg 49%
    15:00 +16°C° 0 mm 2 m/s 772 mmHg 49%
    16:00 +14°C° 0 mm 2 m/s 773 mmHg 54%
    17:00 +13°C° 0 mm 2 m/s 773 mmHg 59%
    18:00 +10°C° 0 mm 2 m/s 773 mmHg 63%
    19:00 +10°C° 0 mm 2 m/s 773 mmHg 66%
    20:00 +9°C° 0 mm 2 m/s 773 mmHg 68%
    21:00 +10°C° 0 mm 1 m/s 773 mmHg 70%
    22:00 +9°C° 0 mm 1 m/s 773 mmHg 71%
    23:00 +9°C° 0 mm 1 m/s 773 mmHg 72%

    Depois de amanhã, 21 Outubro, Domingo

    Tempo Temperatura Precipitação Vento Pressão Humidade
    00:00 +8°C° 0 mm 1 m/s 773 mmHg 74%
    01:00 +8°C° 0 mm 1 m/s 772 mmHg 75%
    02:00 +8°C° 0 mm 1 m/s 772 mmHg 75%
    03:00 +8°C° 0 mm 1 m/s 772 mmHg 76%
    04:00 +7°C° 0 mm 1 m/s 772 mmHg 77%
    05:00 +7°C° 0 mm 1 m/s 772 mmHg 77%
    06:00 +7°C° 0 mm 1 m/s 771 mmHg 77%
    07:00 +9°C° 0 mm 1 m/s 771 mmHg 71%
    08:00 +10°C° 0 mm 1 m/s 771 mmHg 64%
    09:00 +12°C° 0 mm 1 m/s 771 mmHg 57%
    10:00 +14°C° 0 mm 1 m/s 771 mmHg 53%
    11:00 +15°C° 0 mm 1 m/s 770 mmHg 49%
    12:00 +18°C° 0 mm 1 m/s 770 mmHg 44%
    13:00 +18°C° 0 mm 1 m/s 770 mmHg 46%
    14:00 +18°C° 0 mm 1 m/s 769 mmHg 47%
    15:00 +18°C° 0 mm 1 m/s 769 mmHg 48%
    16:00 +15°C° 0 mm 1 m/s 769 mmHg 53%
    17:00 +14°C° 0 mm 1 m/s 769 mmHg 59%
    18:00 +12°C° 0 mm 1 m/s 769 mmHg 64%
    19:00 +12°C° 0 mm 1 m/s 769 mmHg 66%
    20:00 +10°C° 0 mm 2 m/s 770 mmHg 69%
    21:00 +10°C° 0 mm 2 m/s 770 mmHg 71%
    22:00 +10°C° 0.1 mm 2 m/s 770 mmHg 74%
    23:00 +11°C° 0.1 mm 3 m/s 770 mmHg 76%

    22 Outubro, Segunda-feira

    Tempo Temperatura Precipitação Vento Pressão Humidade
    00:00 +11°C° 0.1 mm 3 m/s 770 mmHg 79%
    01:00 +12°C° 0.2 mm 4 m/s 771 mmHg 81%
    02:00 +12°C° 0.2 mm 4 m/s 771 mmHg 82%
    03:00 +12°C° 0.2 mm 5 m/s 771 mmHg 84%
    04:00 +12°C° 0.1 mm 5 m/s 772 mmHg 82%
    05:00 +12°C° 0.1 mm 5 m/s 772 mmHg 79%
    06:00 +10°C° 0.1 mm 5 m/s 773 mmHg 77%
    07:00 +10°C° 0 mm 5 m/s 773 mmHg 72%
    08:00 +12°C° 0 mm 5 m/s 774 mmHg 68%
    09:00 +12°C° 0 mm 5 m/s 775 mmHg 63%
    10:00 +12°C° 0 mm 5 m/s 775 mmHg 61%
    11:00 +12°C° 0 mm 5 m/s 775 mmHg 58%
    12:00 +12°C° 0 mm 5 m/s 775 mmHg 56%
    13:00 +12°C° 0 mm 4 m/s 775 mmHg 57%
    14:00 +12°C° 0 mm 4 m/s 775 mmHg 58%
    15:00 +12°C° 0 mm 4 m/s 775 mmHg 58%
    16:00 +11°C° 0 mm 3 m/s 775 mmHg 61%
    17:00 +11°C° 0 mm 3 m/s 776 mmHg 63%
    18:00 +10°C° 0 mm 2 m/s 776 mmHg 65%
    19:00 +10°C° 0 mm 2 m/s 776 mmHg 67%
    20:00 +10°C° 0 mm 2 m/s 776 mmHg 70%
    21:00 +9°C° 0 mm 2 m/s 776 mmHg 72%
    22:00 +9°C° 0 mm 2 m/s 776 mmHg 74%
    23:00 +9°C° 0 mm 2 m/s 776 mmHg 76%

    23 Outubro, Terça-feira

    Tempo Temperatura Precipitação Vento Pressão Humidade
    00:00 +9°C° 0 mm 3 m/s 776 mmHg 78%
    01:00 +9°C° 0 mm 3 m/s 775 mmHg 79%
    02:00 +10°C° 0 mm 3 m/s 775 mmHg 79%
    03:00 +10°C° 0 mm 4 m/s 775 mmHg 80%
    04:00 +10°C° 0 mm 4 m/s 774 mmHg 82%
    05:00 +10°C° 0 mm 4 m/s 774 mmHg 83%
    06:00 +10°C° 0 mm 4 m/s 774 mmHg 85%
    07:00 +11°C° 0 mm 4 m/s 774 mmHg 83%
    08:00 +11°C° 0 mm 4 m/s 774 mmHg 81%
    09:00 +12°C° 0 mm 4 m/s 774 mmHg 79%
    10:00 +12°C° 0.1 mm 4 m/s 773 mmHg 78%
    11:00 +12°C° 0.1 mm 4 m/s 773 mmHg 77%
    12:00 +12°C° 0.1 mm 4 m/s 773 mmHg 76%
    13:00 +12°C° 0 mm 4 m/s 773 mmHg 76%
    14:00 +13°C° 0 mm 4 m/s 772 mmHg 76%
    15:00 +13°C° 0 mm 5 m/s 772 mmHg 75%
    16:00 +12°C° 0 mm 4 m/s 772 mmHg 78%
    17:00 +12°C° 0 mm 4 m/s 772 mmHg 81%
    18:00 +11°C° 0 mm 4 m/s 772 mmHg 83%
    19:00 +11°C° 0 mm 4 m/s 772 mmHg 84%
    20:00 +11°C° 0 mm 4 m/s 771 mmHg 84%
    21:00 +10°C° 0 mm 5 m/s 771 mmHg 84%
    22:00 +10°C° 0 mm 5 m/s 771 mmHg 84%
    23:00 +11°C° 0 mm 4 m/s 771 mmHg 85%

    24 Outubro, Quarta-feira

    Tempo Temperatura Precipitação Vento Pressão Humidade
    00:00 +11°C° 0 mm 4 m/s 771 mmHg 86%
    01:00 +10°C° 0 mm 5 m/s 771 mmHg 86%
    02:00 +10°C° 0 mm 5 m/s 770 mmHg 87%
    03:00 +12°C° 0 mm 5 m/s 770 mmHg 88%
    04:00 +12°C° 0 mm 5 m/s 770 mmHg 88%
    05:00 +13°C° 0 mm 5 m/s 770 mmHg 87%
    06:00 +13°C° 0 mm 5 m/s 770 mmHg 86%
    07:00 +14°C° 0 mm 5 m/s 770 mmHg 85%
    08:00 +14°C° 0 mm 6 m/s 770 mmHg 84%
    09:00 +15°C° 0 mm 6 m/s 770 mmHg 82%
    10:00 +15°C° 0 mm 6 m/s 770 mmHg 81%
    11:00 +15°C° 0 mm 6 m/s 770 mmHg 80%
    12:00 +16°C° 0 mm 6 m/s 770 mmHg 79%
    13:00 +15°C° 0 mm 6 m/s 770 mmHg 80%
    14:00 +15°C° 0 mm 6 m/s 770 mmHg 81%
    15:00 +15°C° 0 mm 5 m/s 770 mmHg 82%
    16:00 +14°C° 0 mm 5 m/s 770 mmHg 82%
    17:00 +14°C° 0 mm 5 m/s 770 mmHg 82%
    18:00 +14°C° 0 mm 5 m/s 771 mmHg 82%
    19:00 +14°C° 0.1 mm 4 m/s 771 mmHg 81%
    20:00 +13°C° 0.1 mm 4 m/s 771 mmHg 79%
    21:00 +13°C° 0.1 mm 4 m/s 771 mmHg 78%
    22:00 +13°C° 0.1 mm 4 m/s 771 mmHg 79%
    23:00 +13°C° 0.1 mm 3 m/s 771 mmHg 79%
    Mostrar mais